Weather History for Amberley Military, Queensland

Change the Weather History Date:

Wednesday, October 30, 2013

  Actual Average Record
Temperature  
Mean Temperature 70 °F -  
Max Temperature 82 °F - - ()
Min Temperature 57 °F - - ()
Cooling Degree Days 4    
Growing Degree Days 20 (Base 50)    
Moisture  
Dew Point 58 °F    
Average Humidity 76    
Maximum Humidity 100    
Minimum Humidity 37    
Precipitation  
Precipitation 0.00 in - - ()
Sea Level Pressure  
Sea Level Pressure 29.95 in    
Wind  
Wind Speed 4 mph ()    
Max Wind Speed 16 mph    
Max Gust Speed -    
Visibility 5.1 miles    
Events      
T = Trace of Precipitation, MM = Missing Value Source: Averaged Metar Reports

Daily Weather History Graph

Daily Weather History Graph

Search for Another Location

Airport:

Trip Planner

Search our weather history database for the weather conditions in past years. The results will help you decide how hot, cold, wet, or windy it might be!

Date:

Astronomy

Oct. 30, 2013 Rise Set
Actual Time 4:59 AM AEST 6:06 PM AEST
Civil Twilight 4:35 AM AEST 6:30 PM AEST
Nautical Twilight 4:06 AM AEST 6:59 PM AEST
Astronomical Twilight 3:36 AM AEST 7:29 PM AEST
Moon 1:53 AM AEST (10/30) 1:57 PM AEST (10/30)
Length of Visible Light 13h 55m
Length of Day
13h 06m
Waning Crescent, 22% of the Moon is Illuminated
Oct 30
Waning Crescent
Nov 3
New
Nov 10
First Quarter
Nov 18
Full
Nov 26
Last Quarter

Hourly Weather History & Observations

Time (AEST) Temp. Heat Index Dew Point Humidity Pressure Visibility Wind Dir Wind Speed Gust Speed Precip Events Conditions
12:00 AM 66.2 °F - 60.8 °F 83% 29.89 in 6.2 mi South 5.8 mph - N/A   Unknown
12:30 AM 62.6 °F - 60.8 °F 94% 29.89 in 6.2 mi West 4.6 mph - N/A   Unknown
1:00 AM 62.6 °F - 60.8 °F 94% 29.89 in 6.2 mi NNW 5.8 mph - N/A   Unknown
1:30 AM 62.6 °F - 62.6 °F 100% 29.89 in 6.2 mi West 4.6 mph - N/A   Unknown
2:00 AM 60.8 °F - 59.0 °F 94% 29.86 in 6.2 mi WSW 4.6 mph - N/A   Unknown
2:08 AM 60.8 °F - 59.0 °F 94% 29.86 in 3.7 mi WSW 5.8 mph - N/A   Unknown
2:19 AM 59.0 °F - 59.0 °F 100% 29.86 in 6.2 mi Calm Calm - N/A   Unknown
2:29 AM 59.0 °F - 59.0 °F 100% 29.86 in 3.7 mi Calm Calm - N/A   Unknown
2:30 AM 59.0 °F - 57.2 °F 94% 29.86 in 3.1 mi Calm Calm - N/A   Unknown
3:00 AM 59.0 °F - 59.0 °F 100% 29.86 in - WSW 1.2 mph - N/A   Unknown
3:30 AM 59.0 °F - 59.0 °F 100% 29.86 in 1.1 mi Calm Calm - N/A   Mostly Cloudy
4:00 AM 59.0 °F - 59.0 °F 100% 29.86 in 0.1 mi Calm Calm - N/A   Overcast
4:27 AM 59.0 °F - 57.2 °F 94% 29.89 in 0.3 mi Calm Calm - N/A   Scattered Clouds
4:30 AM 59.0 °F - 57.2 °F 94% 29.89 in 0.3 mi Calm Calm - N/A   Scattered Clouds
5:00 AM 57.2 °F - 57.2 °F 100% 29.89 in 3.1 mi Calm Calm - N/A   Scattered Clouds
5:17 AM 57.2 °F - 57.2 °F 100% 29.92 in 0.2 mi WSW 5.8 mph - N/A   Mostly Cloudy
5:30 AM 59.0 °F - 57.2 °F 94% 29.92 in 0.4 mi WSW 6.9 mph - N/A   Mostly Cloudy
6:00 AM 60.8 °F - 59.0 °F 94% 29.95 in 0.9 mi WSW 3.5 mph - N/A   Mostly Cloudy
6:17 AM 60.8 °F - 59.0 °F 94% 29.95 in 6.2 mi WSW 1.2 mph - N/A   Mostly Cloudy
6:30 AM 60.8 °F - 60.8 °F 100% 29.95 in 6.2 mi WNW 2.3 mph - N/A   Mostly Cloudy
6:45 AM 60.8 °F - 60.8 °F 100% 29.95 in 6.2 mi North 4.6 mph - N/A   Overcast
7:00 AM 62.6 °F - 60.8 °F 94% 29.95 in 6.2 mi NNW 4.6 mph - N/A   Mostly Cloudy
7:30 AM 64.4 °F - 62.6 °F 94% 29.98 in 6.2 mi SW 6.9 mph - N/A   Overcast
8:00 AM 64.4 °F - 60.8 °F 88% 29.98 in 6.2 mi SW 2.3 mph - N/A   Mostly Cloudy
8:11 AM 64.4 °F - 60.8 °F 88% 29.98 in 6.2 mi SW 1.2 mph - N/A   Mostly Cloudy
8:30 AM 66.2 °F - 60.8 °F 83% 29.98 in 6.2 mi SW 1.2 mph - N/A   Overcast
8:41 AM 68.0 °F - 62.6 °F 83% 29.98 in 6.2 mi SW 3.5 mph - N/A   Mostly Cloudy
9:00 AM 69.8 °F - 62.6 °F 78% 29.98 in 6.2 mi SW 5.8 mph - N/A   Mostly Cloudy
9:30 AM 69.8 °F - 60.8 °F 73% 29.98 in 6.2 mi SW 4.6 mph - N/A   Mostly Cloudy
10:00 AM 71.6 °F - 60.8 °F 69% 29.98 in 6.2 mi ESE 6.9 mph - N/A   Mostly Cloudy
10:30 AM 73.4 °F - 59.0 °F 61% 29.98 in 6.2 mi East 9.2 mph - N/A   Scattered Clouds
11:00 AM 75.2 °F - 59.0 °F 57% 29.98 in 6.2 mi East 6.9 mph - N/A   Scattered Clouds
11:30 AM 77.0 °F - 59.0 °F 54% 29.95 in 6.2 mi ESE 5.8 mph - N/A   Partly Cloudy
12:00 PM 78.8 °F - 59.0 °F 51% 29.95 in 6.2 mi ENE 4.6 mph - N/A   Scattered Clouds
12:30 PM 80.6 °F 80.8 °F 57.2 °F 45% 29.92 in 6.2 mi ESE 4.6 mph - N/A   Partly Cloudy
1:00 PM 80.6 °F 80.3 °F 53.6 °F 39% 29.92 in 6.2 mi NNE 8.1 mph - N/A   Scattered Clouds
1:30 PM 80.6 °F 80.3 °F 53.6 °F 39% 29.92 in 6.2 mi East 6.9 mph - N/A   Scattered Clouds
2:00 PM 82.4 °F 81.4 °F 53.6 °F 37% 29.89 in 6.2 mi NE 5.8 mph - N/A   Scattered Clouds
2:30 PM 82.4 °F 81.4 °F 53.6 °F 37% 29.89 in - North 8.1 mph - N/A   Clear
3:00 PM 82.4 °F 82.5 °F 59.0 °F 45% 29.89 in 6.2 mi ENE 13.8 mph - N/A   Scattered Clouds
3:30 PM 78.8 °F - 57.2 °F 47% 29.89 in - North - - N/A   Clear
4:00 PM 78.8 °F - 55.4 °F 44% 29.92 in - ENE 10.4 mph - N/A   Clear
4:30 PM 75.2 °F - 55.4 °F 50% 29.92 in - East 16.1 mph - N/A   Clear
5:00 PM 75.2 °F - 55.4 °F 50% 29.95 in - East 13.8 mph - N/A   Clear
5:30 PM 73.4 °F - 57.2 °F 57% 29.95 in - East 11.5 mph - N/A   Clear
6:00 PM 71.6 °F - 57.2 °F 60% 29.98 in 6.2 mi East 16.1 mph - N/A   Partly Cloudy
6:30 PM 69.8 °F - 57.2 °F 64% 30.01 in 5.6 mi East 13.8 mph - N/A   Scattered Clouds
7:00 PM 69.8 °F - 57.2 °F 64% 30.01 in 5.6 mi East 11.5 mph - N/A   Scattered Clouds
7:30 PM 69.8 °F - 59.0 °F 68% 30.04 in 5.6 mi East 10.4 mph - N/A   Mostly Cloudy
8:00 PM 69.8 °F - 59.0 °F 68% 30.06 in 6.2 mi North - - N/A   Mostly Cloudy
8:30 PM 69.8 °F - 57.2 °F 64% 30.06 in 6.2 mi North - - N/A   Overcast
9:00 PM 68.0 °F - 57.2 °F 68% 30.06 in 6.2 mi North - - N/A   Overcast
9:30 PM 68.0 °F - 57.2 °F 68% 30.06 in 6.2 mi North - - N/A   Unknown
10:00 PM 66.2 °F - 57.2 °F 73% 30.06 in 6.2 mi North - - N/A   Mostly Cloudy
10:30 PM 66.2 °F - 57.2 °F 73% 30.09 in 6.2 mi North - - N/A   Overcast
11:00 PM 66.2 °F - 59.0 °F 78% 30.06 in 6.2 mi North - - N/A   Overcast
11:30 PM 66.2 °F - 59.0 °F 78% 30.06 in 6.2 mi North - - N/A   Overcast